Tracking 27405 objects as of 1-Jun-2023
HD Live streaming from Space Station
objects crossing your sky now

ONEWEB-0305

Track ONEWEB-0305 now!
10-day predictions
ONEWEB-0305 is classified as:


NORAD ID: 49093
Int'l Code: 2021-075U
Perigee: 1,199.4 km
Apogee: 1,202.3 km
Inclination: 87.9 °
Period: 109.3 minutes
Semi major axis: 7571 km
RCS: Unknown
Launch date: August 21, 2021
Source: United Kingdom (UK)
Launch site: TYURATAM MISSILE AND SPACE COMPLEX (TTMTR)
Your satellite tracking list
Your tracking list is empty




NASA's NSSDC Master Catalog

Two Line Element Set (TLE):
1 49093U 21075U   23151.92311295  .00000016  00000-0  69750-5 0  9993
2 49093  87.9186 226.8462 0001941 116.0859 244.0472 13.17649992 87134
Source of the keplerian elements: AFSPC